TimeMDT,TemperatureF,Dew PointF,Humidity,Sea Level PressureIn,VisibilityMPH,Wind Direction,Wind SpeedMPH,Gust SpeedMPH,PrecipitationIn,Events,Conditions,WindDirDegrees,DateUTC
12:53 AM,36.0,28.0,73,30.27,10.0,ENE,12.7,-,N/A,,Overcast,70,2013-10-28 06:53:00
1:53 AM,35.1,28.0,76,30.29,10.0,East,12.7,-,N/A,,Overcast,80,2013-10-28 07:53:00
3:44 AM,33.8,26.6,75,30.28,10.0,East,15.0,24.2,N/A,,Overcast,80,2013-10-28 09:44:00
3:53 AM,32.0,26.1,79,30.32,10.0,East,17.3,25.3,N/A,,Overcast,80,2013-10-28 09:53:00
4:46 AM,32.0,24.8,75,30.30,10.0,East,16.1,24.2,N/A,,Overcast,90,2013-10-28 10:46:00
4:53 AM,32.0,25.0,75,30.34,10.0,East,17.3,-,N/A,,Overcast,90,2013-10-28 10:53:00
5:07 AM,30.2,24.8,80,30.30,10.0,East,18.4,24.2,N/A,,Overcast,80,2013-10-28 11:07:00
5:53 AM,30.9,24.1,76,30.36,10.0,East,13.8,24.2,N/A,,Overcast,80,2013-10-28 11:53:00
6:08 AM,30.2,23.0,75,30.31,10.0,East,15.0,-,N/A,,Overcast,90,2013-10-28 12:08:00
6:53 AM,30.0,23.0,75,30.37,10.0,East,13.8,-,N/A,,Overcast,90,2013-10-28 12:53:00
7:53 AM,28.9,21.9,75,30.39,10.0,East,15.0,20.7,N/A,,Overcast,80,2013-10-28 13:53:00
8:53 AM,28.9,21.0,72,30.41,10.0,East,13.8,-,N/A,,Overcast,80,2013-10-28 14:53:00
9:53 AM,28.0,19.9,72,30.41,10.0,ENE,13.8,-,N/A,,Overcast,70,2013-10-28 15:53:00
10:53 AM,28.0,19.9,72,30.40,10.0,East,11.5,-,N/A,,Overcast,80,2013-10-28 16:53:00
11:41 AM,26.6,21.2,80,30.32,1.8,ENE,16.1,-,0.00,Snow,Light Snow,70,2013-10-28 17:41:00
11:53 AM,27.0,21.9,81,30.40,0.8,ENE,15.0,-,0.00,Snow,Light Snow,60,2013-10-28 17:53:00
12:03 PM,26.6,23.0,86,30.32,0.5,ENE,15.0,-,0.00,Fog-Snow,Snow,70,2013-10-28 18:03:00
12:30 PM,26.6,24.8,93,30.31,0.8,ENE,15.0,-,0.00,Snow,Light Snow,60,2013-10-28 18:30:00
12:34 PM,26.6,23.0,86,30.31,1.0,ENE,16.1,-,0.00,Snow,Light Snow,60,2013-10-28 18:34:00
12:53 PM,27.0,24.1,89,30.39,1.2,ENE,13.8,-,0.00,Snow,Light Snow,60,2013-10-28 18:53:00
1:06 PM,26.6,24.8,93,30.30,0.8,ENE,11.5,-,0.01,Snow,Light Snow,70,2013-10-28 19:06:00
1:45 PM,26.6,24.8,93,30.29,0.5,ENE,13.8,-,0.02,Fog-Snow,Snow,70,2013-10-28 19:45:00
1:53 PM,27.0,24.1,89,30.37,0.5,ENE,17.3,-,0.02,Fog-Snow,Light Snow,70,2013-10-28 19:53:00
2:10 PM,26.6,24.8,93,30.28,0.2,ENE,17.3,21.9,0.01,Fog-Snow,Snow,70,2013-10-28 20:10:00
2:24 PM,26.6,24.8,93,30.28,0.5,ENE,13.8,-,0.01,Fog-Snow,Snow,70,2013-10-28 20:24:00
2:35 PM,26.6,24.8,93,30.28,0.2,East,12.7,-,0.02,Fog-Snow,Snow,80,2013-10-28 20:35:00
2:53 PM,28.0,25.0,88,30.36,0.5,East,11.5,-,0.02,Fog-Snow,Snow,80,2013-10-28 20:53:00
3:09 PM,28.4,24.8,86,30.27,1.0,ENE,10.4,-,0.01,Snow,Light Snow,70,2013-10-28 21:09:00
3:22 PM,28.4,24.8,86,30.27,0.2,East,11.5,-,0.02,Fog-Snow,Heavy Snow,90,2013-10-28 21:22:00
3:34 PM,26.6,24.8,93,30.27,0.2,East,10.4,-,0.02,Fog-Snow,Snow,80,2013-10-28 21:34:00
3:42 PM,26.6,24.8,93,30.27,0.5,East,10.4,-,0.03,Fog-Snow,Snow,80,2013-10-28 21:42:00
3:53 PM,27.0,25.0,92,30.36,0.5,East,10.4,-,0.03,Fog-Snow,Snow,80,2013-10-28 21:53:00
4:28 PM,26.6,24.8,93,30.27,0.8,ENE,12.7,-,0.01,Snow,Light Snow,70,2013-10-28 22:28:00
4:46 PM,26.6,24.8,93,30.27,0.5,East,12.7,-,0.02,Fog-Snow,Snow,80,2013-10-28 22:46:00
4:53 PM,27.0,24.1,89,30.35,0.5,East,11.5,-,0.02,Fog-Snow,Snow,80,2013-10-28 22:53:00
5:00 PM,26.6,24.8,93,30.26,0.5,East,10.4,-,0.00,Fog-Snow,Snow,80,2013-10-28 23:00:00
5:10 PM,26.6,24.8,93,30.27,0.5,East,11.5,-,0.00,Fog-Snow,Snow,80,2013-10-28 23:10:00
5:42 PM,26.6,24.8,93,30.26,0.2,East,9.2,-,0.02,Fog-Snow,Heavy Snow,80,2013-10-28 23:42:00
5:53 PM,27.0,24.1,89,30.35,0.2,East,10.4,-,0.02,Fog-Snow,Snow,80,2013-10-28 23:53:00
6:03 PM,26.6,24.8,93,30.27,0.5,East,10.4,-,0.01,Fog-Snow,Snow,80,2013-10-29 00:03:00
6:47 PM,26.6,24.8,93,30.26,1.0,East,9.2,-,0.04,Snow,Light Snow,90,2013-10-29 00:47:00
6:53 PM,27.0,25.0,92,30.35,1.2,East,9.2,-,0.04,Snow,Light Snow,100,2013-10-29 00:53:00
7:05 PM,26.6,24.8,93,30.27,1.8,East,8.1,-,0.00,Snow,Light Snow,90,2013-10-29 01:05:00
7:53 PM,27.0,24.1,89,30.35,2.0,East,8.1,-,0.01,Snow,Light Snow,100,2013-10-29 01:53:00
8:00 PM,26.6,24.8,93,30.25,3.0,East,10.4,-,0.00,Snow,Light Snow,100,2013-10-29 02:00:00
8:53 PM,27.0,24.1,89,30.34,5.0,East,9.2,-,0.01,Snow,Light Snow,100,2013-10-29 02:53:00
9:53 PM,28.0,23.0,81,30.35,10.0,ESE,10.4,-,0.01,,Overcast,110,2013-10-29 03:53:00
10:53 PM,28.0,23.0,81,30.33,8.0,ESE,10.4,-,0.00,Snow,Light Snow,110,2013-10-29 04:53:00
11:53 PM,28.0,24.1,85,30.31,10.0,ESE,8.1,-,0.00,,Overcast,110,2013-10-29 05:53:00